Location: Unspecified
(35.6961°N, 0.0000°E)
Time: 21:17:29
(UTC+00:00)

S-56A Canister/Altair - Pass Details

Date: 03 June 2019
Orbit: 633 x 2499 km, 38.9° (Epoch: 23 June)

Event Time Altitude Azimuth Distance (km) Brightness Sun altitude
Rises 02:29:33 0° 287° (WNW) 3,322 - -21.9°
Exits shadow 02:31:06 - 287° (WNW) 2,746 10.2 -21.7°
Reaches altitude 10° 02:31:40 10° 286° (WNW) 2,540 10.0 -21.6°
Maximum altitude 02:37:41 79° 201° (SSW) 1,161 8.2 -20.8°
Drops below altitude 10° 02:46:57 10° 116° (ESE) 3,805 11.2 -19.6°
Sets 02:50:48 0° 116° (ESE) 5,094 11.9 -19.1°
